This is the latest recevied weather packets stored in our database for station/object WA6OOO. If no packets are shown the sender has not sent any weather packets the latest 10 day(s).
| Time | Temp. | Humidity | Pressure | Rain* | Wind** | Luminosity | Snow |
|---|---|---|---|---|---|---|---|
| 1787894901 | 27.22° C | 61% | 1013.3 hPa | 0 mm | - | 0 W/m² | - |
| 1787894596 | 27.22° C | 67% | 1013.3 hPa | 0 mm | - | 0 W/m² | - |
| 1787894295 | 26.67° C | 69% | 1013.7 hPa | 0 mm | - | 0 W/m² | - |
| 1787893992 | 26.67° C | 70% | 1013.9 hPa | 0 mm | - | 0 W/m² | - |
| 1787893688 | 27.22° C | 67% | 1013.8 hPa | 0 mm | - | 0 W/m² | - |
| 1787893383 | 27.78° C | 61% | 1013.5 hPa | 0 mm | - | 0 W/m² | - |
| 1787893079 | 26.67° C | 64% | 1013.3 hPa | 0 mm | - | 0 W/m² | - |
| 1787892776 | 26.11° C | 71% | 1013.3 hPa | 0 mm | - | 0 W/m² | - |
| 1787892470 | 26.11° C | 72% | 1013.4 hPa | 0 mm | - | 0 W/m² | - |
| 1787892168 | 25.56° C | 74% | 1013.6 hPa | 0 mm | - | 0 W/m² | - |
| 1787891862 | 26.11° C | 74% | 1013.7 hPa | 0 mm | - | 0 W/m² | - |
| 1787891558 | 26.11° C | 74% | 1013.7 hPa | 0 mm | - | 0 W/m² | - |
| 1787891257 | 26.11° C | 73% | 1013.7 hPa | 0 mm | - | 0 W/m² | - |
| 1787890957 | 26.67° C | 69% | 1013.4 hPa | 0 mm | - | 0 W/m² | - |
| 1787890651 | 26.67° C | 69% | 1013.2 hPa | 0 mm | - | 0 W/m² | - |
| 1787890346 | 26.67° C | 69% | 1013.3 hPa | 0 mm | - | 0 W/m² | - |
| 1787890041 | 26.67° C | 68% | 1013.4 hPa | 0 mm | - | 0 W/m² | - |
| 1787889737 | 26.67° C | 67% | 1013.4 hPa | 0 mm | - | 0 W/m² | - |
| 1787889432 | 27.22° C | 66% | 1013.1 hPa | 0 mm | - | 0 W/m² | - |
| 1787889130 | 27.22° C | 65% | 1012.9 hPa | 0 mm | - | 0 W/m² | - |
| 1787888821 | 26.67° C | 70% | 1012.9 hPa | 0 mm | - | 0 W/m² | - |
| 1787888516 | 26.67° C | 72% | 1013.2 hPa | 0 mm | - | 0 W/m² | - |
| 1787888215 | 26.11° C | 71% | 1013.1 hPa | 0 mm | - | 0 W/m² | - |
| 1787887912 | 25.56° C | 74% | 1013 hPa | 0 mm | - | 0 W/m² | - |
| 1787887607 | 25.56° C | 75% | 1012.9 hPa | 0 mm | - | 0 W/m² | - |
* Rain latest hour (hover to see other rain measurements)
** Current wind speed in m/s (hover to see current wind gust speed)